Home > Weather > Tunis > Past weeks

Flag for Tunisia Weather for the Past 2 Weeks in Tunis, Tunisia

Now
63 °F

Passing clouds.


Feels Like: 63 °F
Forecast: 54 / 76 °F
Wind: 18 mph from West

Location: Tunis-Carthage

Current Time: May 3, 2016 at 10:01:06 PM

Latest Report: May 3, 2016 at 9:30 PM


Visibility: N/A

Pressure: 30.09 "Hg

Humidity: 52%

Dew Point: 45 °F

Location of TunisLocation

Historic Weather in Tunis — Graph

°F

Tunis Temperature Yesterday

Maximum temperature yesterday: 66 °F (at 1:30 PM)
Minimum temperature yesterday: 52 °F (at 5:00 AM)
Average temperature yesterday: 58 °F

High & Low Weather Summary for the Past Weeks

 TemperatureHumidityPressure
High81 °F (Apr 28, 2:00 PM)100% (Apr 22, 5:00 AM)30.21 "Hg (Apr 22, 5:00 AM)
Low52 °F (Apr 26, 4:00 AM)29% (Apr 26, 12:30 PM)29.74 "Hg (Apr 28, 3:30 PM)
Average65 °F65%29.97 "Hg
* Reported Apr 18 8:00 PM — May 3 8:58 PM, Tunis, Weather by CustomWeather, © 2016

Note: Actual official high and low records may vary slightly from our data, if they occured in-between our weather recording intervals... More about our weather records

Advertising

Tunis Weather History for the Previous 24 Hours

Scroll right to see more
 ConditionsComfort  
Time TempWeatherWind HumidityBarometerVisibility
8:58 PM
Tue, May 3
63 °FPassing clouds.18 mph56%30.07 "HgN/A
8:30 PM63 °FPassing clouds.13 mph56%30.09 "HgN/A
8:00 PM63 °FPassing clouds.17 mph59%30.09 "HgN/A
7:30 PM64 °FPassing clouds.20 mph56%30.07 "HgN/A
7:00 PM64 °FPassing clouds.18 mph56%30.07 "HgN/A
6:30 PM66 °FPassing clouds.22 mph52%30.07 "HgN/A
6:00 PM66 °FPassing clouds.21 mph52%30.07 "HgN/A
5:00 PM70 °FPassing clouds.25 mph46%30.04 "HgN/A
4:30 PM70 °FPassing clouds.24 mph50%30.07 "HgN/A
4:00 PM70 °FPassing clouds.20 mph50%30.07 "HgN/A
3:30 PM72 °FPassing clouds.22 mph47%30.07 "HgN/A
3:00 PM72 °FScattered clouds.22 mph50%30.07 "HgN/A
2:30 PM72 °FScattered clouds.22 mph47%30.07 "HgN/A
1:58 PM72 °FScattered clouds.23 mph50%30.07 "HgN/A
1:30 PM73 °FScattered clouds.21 mph44%30.07 "HgN/A
12:30 PM72 °FScattered clouds.22 mph47%30.07 "HgN/A
11:30 AM72 °FScattered clouds.21 mph47%30.07 "HgN/A
11:00 AM70 °FScattered clouds.21 mph50%30.07 "HgN/A
10:59 AM70 °FScattered clouds.20 mph50%30.07 "HgN/A
10:30 AM70 °FScattered clouds.22 mph46%30.07 "HgN/A
10:00 AM70 °FScattered clouds.20 mph50%30.07 "HgN/A
9:03 AM68 °FScattered clouds.18 mph53%30.04 "HgN/A
8:30 AM66 °FScattered clouds.18 mph60%30.04 "HgN/A
8:00 AM64 °FScattered clouds.20 mph64%30.04 "HgN/A
7:30 AM63 °FPassing clouds.17 mph64%30.04 "HgN/A
7:00 AM63 °FPassing clouds.18 mph64%30.01 "HgN/A
6:30 AM61 °FPassing clouds.15 mph68%30.01 "HgN/A
6:00 AM61 °FScattered clouds.16 mph68%30.01 "HgN/A
5:30 AM61 °FScattered clouds.17 mph68%30.01 "HgN/A
4:30 AM59 °FPassing clouds.17 mph68%29.98 "HgN/A
4:00 AM61 °FPassing clouds.16 mph63%29.98 "HgN/A
3:30 AM61 °FPassing clouds.17 mph68%29.98 "HgN/A
2:30 AM61 °FPassing clouds.18 mph68%29.98 "HgN/A
2:00 AM61 °FPassing clouds.18 mph68%29.98 "HgN/A
1:30 AM59 °FPassing clouds.18 mph72%29.98 "HgN/A
1:00 AM59 °FPassing clouds.18 mph68%29.98 "HgN/A
12:00 AM59 °FPassing clouds.20 mph68%30.01 "HgN/A
11:30 PM
Mon, May 2
59 °FPassing clouds.17 mph68%30.01 "HgN/A
11:00 PM59 °FPassing clouds.17 mph68%30.01 "HgN/A
10:00 PM59 °FPassing clouds.18 mph68%30.01 "HgN/A
Weather by CustomWeather, © 2016

See weather overviewHow to use our weather pages